"read_dt","SO2 (ppb)","flags","PMT voltage (V)","lamp voltage (V)","lamp intensity (Hz)","internal temp (C)","react chamber temp (C)","sample flow (l/min)","pres (mmHg)","SO2 bkg (ppb)","SO2 coefficient"
2013-10-02 00:00:00,1098E-4,5C000000,-0724,0947,11086,023.0,045.2,0.403,739.4,01.18,0.508
2013-10-02 00:01:00,1334E-4,5C000000,-0724,0947,11074,023.0,045.2,0.403,739.4,01.18,0.508
2013-10-02 00:02:00,1768E-5,5C000000,-0724,0948,11260,023.0,045.2,0.403,739.5,01.18,0.508
2013-10-02 00:03:00,1758E-4,5C000000,-0724,0946,11048,023.0,045.2,0.403,739.4,01.18,0.508
2013-10-02 00:04:00,6489E-5,5C000000,-0724,0947,11219,023.0,045.2,0.403,739.2,01.18,0.508
2013-10-02 00:05:00,1391E-4,5C000000,-0724,0947,11032,023.0,045.2,0.403,739.5,01.18,0.508
2013-10-02 00:06:00,1307E-4,5C000000,-0724,0946,11059,023.0,045.2,0.403,739.5,01.18,0.508
2013-10-02 00:07:00,9056E-5,5C000000,-0724,0946,11127,023.0,045.2,0.403,739.3,01.18,0.508
2013-10-02 00:08:00,8565E-5,5C000000,-0724,0946,11109,023.0,045.2,0.403,739.6,01.18,0.508
2013-10-02 00:09:00,7849E-5,5C000000,-0724,0946,11174,023.0,045.2,0.403,739.5,01.18,0.508
2013-10-02 00:10:00,5871E-5,5C000000,-0724,0946,11113,023.0,045.2,0.403,739.5,01.18,0.508
2013-10-02 00:11:00,1514E-4,5C000000,-0724,0946,10997,023.0,045.2,0.403,739.6,01.18,0.508
2013-10-02 00:12:00,1837E-4,5C000000,-0724,0946,11002,023.0,045.2,0.403,739.5,01.18,0.508
2013-10-02 00:13:00,1133E-4,5C000000,-0724,0946,11133,023.0,045.2,0.403,739.4,01.18,0.508
2013-10-02 00:14:00,1129E-4,5C000000,-0724,0946,11136,023.0,045.2,0.403,739.7,01.18,0.508
2013-10-02 00:15:00,3551E-5,5C000000,-0724,0947,11229,023.0,045.2,0.404,739.5,01.18,0.508
2013-10-02 00:16:00,9424E-5,5C000000,-0724,0947,11059,023.0,045.2,0.404,739.6,01.18,0.508
2013-10-02 00:17:00,1711E-4,5C000000,-0724,0946,11110,023.0,045.2,0.404,739.6,01.18,0.508
2013-10-02 00:18:00,1261E-4,5C000000,-0724,0946,11140,023.0,045.2,0.404,739.6,01.18,0.508
2013-10-02 00:19:00,3021E-5,5C000000,-0724,0946,11077,023.0,045.2,0.404,739.7,01.18,0.508
2013-10-02 00:20:00,1017E-4,5C000000,-0724,0947,10924,023.0,045.2,0.404,739.6,01.18,0.508
2013-10-02 00:21:00,1446E-4,5C000000,-0724,0946,11072,023.0,045.2,0.404,739.5,01.18,0.508
2013-10-02 00:22:00,2466E-5,5C000000,-0724,0946,10997,023.0,045.2,0.404,739.4,01.18,0.508
2013-10-02 00:23:00,1513E-4,5C000000,-0724,0946,10944,023.0,045.2,0.404,739.5,01.18,0.508
2013-10-02 00:24:00,1495E-4,5C000000,-0724,0946,10980,023.0,045.2,0.404,739.7,01.18,0.508
2013-10-02 00:25:00,6445E-5,5C000000,-0724,0947,11123,023.0,045.2,0.404,739.4,01.18,0.508
2013-10-02 00:26:00,7847E-5,5C000000,-0724,0947,11049,022.9,045.2,0.404,739.7,01.18,0.508
2013-10-02 00:27:00,8796E-5,5C000000,-0724,0946,11097,022.9,045.2,0.404,739.4,01.18,0.508
2013-10-02 00:28:00,1349E-4,5C000000,-0724,0946,10886,022.9,045.2,0.404,739.6,01.18,0.508
2013-10-02 00:29:00,1504E-4,5C000000,-0724,0945,11100,023.0,045.2,0.404,739.4,01.18,0.508
2013-10-02 00:30:00,5992E-5,5C000000,-0724,0947,10951,023.0,045.2,0.404,739.5,01.18,0.508
2013-10-02 00:31:00,7655E-6,5C000000,-0724,0946,11000,022.9,045.2,0.404,739.1,01.18,0.508
2013-10-02 00:32:00,1545E-4,5C000000,-0724,0946,11024,023.0,045.2,0.404,739.5,01.18,0.508
2013-10-02 00:33:00,2620E-5,5C000000,-0724,0946,11084,023.0,045.2,0.404,739.6,01.18,0.508
2013-10-02 00:34:00,5211E-5,5C000000,-0724,0947,11102,023.0,045.2,0.404,739.7,01.18,0.508
2013-10-02 00:35:00,4050E-5,5C000000,-0724,0946,11030,023.0,045.2,0.404,739.6,01.18,0.508
2013-10-02 00:36:00,1390E-4,5C000000,-0724,0947,11030,022.9,045.2,0.404,739.6,01.18,0.508
2013-10-02 00:37:00,-2300E-7,5C000000,-0724,0946,11096,022.9,045.2,0.404,739.3,01.18,0.508
2013-10-02 00:38:00,8454E-5,5C000000,-0724,0947,11043,022.9,045.2,0.404,739.6,01.18,0.508
2013-10-02 00:39:00,1252E-4,5C000000,-0724,0946,11072,022.9,045.2,0.404,739.4,01.18,0.508
2013-10-02 00:40:00,1412E-4,5C000000,-0724,0945,11035,022.9,045.2,0.404,739.4,01.18,0.508
2013-10-02 00:41:00,1198E-4,5C000000,-0724,0946,10932,022.9,045.2,0.404,739.4,01.18,0.508
2013-10-02 00:42:00,1478E-4,5C000000,-0724,0946,11053,022.9,045.2,0.404,739.2,01.18,0.508
2013-10-02 00:43:00,1078E-4,5C000000,-0724,0946,11079,022.9,045.2,0.404,739.5,01.18,0.508
2013-10-02 00:44:00,9524E-5,5C000000,-0724,0946,10914,022.9,045.2,0.404,739.2,01.18,0.508
2013-10-02 00:45:00,6205E-5,5C000000,-0724,0946,11024,022.9,045.2,0.404,739.3,01.18,0.508
2013-10-02 00:46:00,5089E-5,5C000000,-0724,0947,11054,022.9,045.2,0.404,739.5,01.18,0.508
2013-10-02 00:47:00,1137E-4,5C000000,-0724,0945,11147,022.9,045.2,0.404,739.3,01.18,0.508
2013-10-02 00:48:00,7365E-5,5C000000,-0724,0947,10966,022.9,045.2,0.404,739.2,01.18,0.508
2013-10-02 00:49:00,6453E-5,5C000000,-0724,0946,11039,022.9,045.2,0.404,739.3,01.18,0.508
2013-10-02 00:50:00,6831E-5,5C000000,-0724,0946,11070,022.9,045.2,0.404,739.4,01.18,0.508
2013-10-02 00:51:00,1257E-4,5C000000,-0724,0947,11062,022.9,045.2,0.404,739.6,01.18,0.508
2013-10-02 00:52:00,1106E-4,5C000000,-0724,0946,11018,022.9,045.2,0.404,739.5,01.18,0.508
2013-10-02 00:53:00,8964E-5,5C000000,-0724,0946,11051,022.9,045.2,0.404,739.6,01.18,0.508
2013-10-02 00:54:00,5550E-5,5C000000,-0724,0946,11034,022.9,045.2,0.404,739.4,01.18,0.508
2013-10-02 00:55:00,1733E-4,5C000000,-0724,0947,11078,022.9,045.2,0.404,739.4,01.18,0.508
2013-10-02 00:56:00,2236E-6,5C000000,-0724,0947,11121,022.9,045.2,0.404,739.3,01.18,0.508
2013-10-02 00:57:00,1121E-4,5C000000,-0724,0946,11151,022.9,045.2,0.404,739.6,01.18,0.508
2013-10-02 00:58:00,3916E-5,5C000000,-0724,0946,11090,022.9,045.2,0.404,739.6,01.18,0.508
2013-10-02 00:59:00,7868E-5,5C000000,-0724,0947,11086,022.9,045.2,0.404,739.5,01.18,0.508
2013-10-02 01:00:00,1235E-4,5C000000,-0724,0946,11071,022.9,045.2,0.404,739.7,01.18,0.508
2013-10-02 01:01:00,8884E-5,5C000000,-0724,0946,10940,022.9,045.2,0.404,739.6,01.18,0.508
2013-10-02 01:02:00,1088E-4,5C000000,-0724,0947,11122,022.9,045.2,0.404,739.5,01.18,0.508
2013-10-02 01:03:00,-1306E-5,5C000000,-0724,0946,11069,022.9,045.2,0.404,739.7,01.18,0.508
2013-10-02 01:04:00,4442E-5,5C000000,-0724,0947,10911,022.9,045.2,0.404,739.5,01.18,0.508
2013-10-02 01:05:00,1570E-5,5C000000,-0724,0947,10967,022.9,045.2,0.404,739.5,01.18,0.508
2013-10-02 01:06:00,1427E-4,5C000000,-0724,0947,10976,022.9,045.2,0.404,739.7,01.18,0.508
2013-10-02 01:07:00,1354E-4,5C000000,-0724,0946,11110,022.9,045.2,0.404,739.6,01.18,0.508
2013-10-02 01:08:00,8403E-5,5C000000,-0724,0946,11119,022.9,045.2,0.404,739.8,01.18,0.508
2013-10-02 01:09:00,1122E-4,5C000000,-0724,0947,11031,022.9,045.2,0.404,739.6,01.18,0.508
2013-10-02 01:10:00,-1231E-6,5C000000,-0724,0946,11034,022.9,045.2,0.404,739.7,01.18,0.508
2013-10-02 01:11:00,6239E-5,5C000000,-0724,0947,11092,022.9,045.2,0.404,739.6,01.18,0.508
2013-10-02 01:12:00,6465E-5,5C000000,-0724,0946,11144,022.9,045.2,0.404,739.7,01.18,0.508
2013-10-02 01:13:00,5898E-5,5C000000,-0724,0946,11131,022.9,045.2,0.404,739.7,01.18,0.508
2013-10-02 01:14:00,1054E-4,5C000000,-0724,0947,11137,022.9,045.2,0.404,739.8,01.18,0.508
2013-10-02 01:15:00,1857E-4,5C000000,-0724,0947,11089,022.9,045.2,0.404,739.7,01.18,0.508
2013-10-02 01:16:00,6093E-5,5C000000,-0724,0946,11040,022.9,045.2,0.404,739.6,01.18,0.508
2013-10-02 01:17:00,2540E-5,5C000000,-0724,0947,11003,022.9,045.2,0.404,739.7,01.18,0.508
2013-10-02 01:18:00,1141E-4,5C000000,-0724,0947,11112,022.9,045.2,0.404,739.7,01.18,0.508
2013-10-02 01:19:00,2620E-5,5C000000,-0724,0947,11084,022.9,045.2,0.404,739.7,01.18,0.508
2013-10-02 01:20:00,1085E-4,5C000000,-0724,0946,11051,022.9,045.2,0.404,739.7,01.18,0.508
2013-10-02 01:21:00,1342E-4,5C000000,-0724,0947,11083,022.9,045.2,0.404,739.8,01.18,0.508
2013-10-02 01:22:00,1134E-4,5C000000,-0724,0947,11011,022.9,045.2,0.404,739.8,01.18,0.508
2013-10-02 01:23:00,6265E-5,5C000000,-0724,0947,11083,022.9,045.2,0.404,739.7,01.18,0.508
2013-10-02 01:24:00,1248E-4,5C000000,-0724,0947,11136,022.9,045.2,0.404,739.6,01.18,0.508
2013-10-02 01:25:00,6723E-5,5C000000,-0724,0946,11019,022.9,045.2,0.404,739.7,01.18,0.508
2013-10-02 01:26:00,9842E-5,5C000000,-0724,0946,11034,022.9,045.2,0.404,739.7,01.18,0.508
2013-10-02 01:27:00,5349E-5,5C000000,-0724,0947,11047,022.9,045.2,0.404,739.7,01.18,0.508
2013-10-02 01:28:00,4019E-5,5C000000,-0724,0946,10890,022.9,045.2,0.404,739.7,01.18,0.508
2013-10-02 01:29:00,8854E-5,5C000000,-0724,0947,11131,022.9,045.2,0.404,739.8,01.18,0.508
2013-10-02 01:30:00,3943E-6,5C000000,-0724,0945,10966,022.9,045.2,0.404,739.8,01.18,0.508
2013-10-02 01:31:00,7819E-5,5C000000,-0724,0947,11116,022.9,045.2,0.404,739.8,01.18,0.508
2013-10-02 01:32:00,7729E-5,5C000000,-0724,0947,10973,022.9,045.2,0.404,739.7,01.18,0.508
2013-10-02 01:33:00,4721E-6,5C000000,-0724,0948,11085,022.8,045.2,0.404,739.8,01.18,0.508
2013-10-02 01:34:00,6017E-5,5C000000,-0724,0947,11120,022.8,045.2,0.404,739.9,01.18,0.508
2013-10-02 01:35:00,1465E-4,5C000000,-0724,0947,11193,022.8,045.2,0.404,739.8,01.18,0.508
2013-10-02 01:36:00,8402E-5,5C000000,-0724,0947,10791,022.8,045.2,0.404,739.8,01.18,0.508
2013-10-02 01:37:00,9828E-5,5C000000,-0724,0946,10878,022.8,045.2,0.404,739.8,01.18,0.508
2013-10-02 01:38:00,3192E-5,5C000000,-0724,0946,11066,022.8,045.2,0.404,739.8,01.18,0.508
2013-10-02 01:39:00,4848E-5,5C000000,-0724,0948,11178,022.8,045.2,0.404,739.8,01.18,0.508
2013-10-02 01:40:00,6497E-5,5C000000,-0724,0947,11036,022.9,045.2,0.404,739.7,01.18,0.508
2013-10-02 01:41:00,1469E-4,5C000000,-0724,0946,11016,022.8,045.2,0.404,739.9,01.18,0.508
2013-10-02 01:42:00,7117E-5,5C000000,-0724,0947,11125,022.8,045.2,0.404,739.8,01.18,0.508
2013-10-02 01:43:00,1319E-4,5C000000,-0724,0946,11120,022.9,045.2,0.404,739.7,01.18,0.508
2013-10-02 01:44:00,7859E-5,5C000000,-0724,0947,11045,022.8,045.2,0.404,739.7,01.18,0.508
2013-10-02 01:45:00,1275E-4,5C000000,-0724,0947,11146,022.8,045.2,0.404,739.8,01.18,0.508
2013-10-02 01:46:00,9369E-5,5C000000,-0724,0947,11065,022.8,045.2,0.404,739.9,01.18,0.508
2013-10-02 01:47:00,1244E-4,5C000000,-0724,0946,11027,022.8,045.2,0.404,739.6,01.18,0.508
2013-10-02 01:48:00,7168E-5,5C000000,-0724,0947,11112,022.8,045.2,0.404,739.8,01.18,0.508
2013-10-02 01:49:00,4080E-5,5C000000,-0724,0947,11033,022.8,045.2,0.404,739.9,01.18,0.508
2013-10-02 01:50:00,1616E-4,5C000000,-0724,0947,11078,022.8,045.2,0.404,740.0,01.18,0.508
2013-10-02 01:51:00,5672E-5,5C000000,-0724,0946,11141,022.8,045.2,0.404,739.9,01.18,0.508
2013-10-02 01:52:00,1555E-4,5C000000,-0724,0946,10945,022.8,045.2,0.404,739.9,01.18,0.508
2013-10-02 01:53:00,8080E-5,5C000000,-0724,0947,11139,022.8,045.2,0.404,739.9,01.18,0.508
2013-10-02 01:54:00,2947E-5,5C000000,-0724,0946,10986,022.8,045.2,0.404,739.9,01.18,0.508
2013-10-02 01:55:00,6029E-5,5C000000,-0724,0948,10961,022.8,045.2,0.404,739.9,01.18,0.508
2013-10-02 01:56:00,3574E-5,5C000000,-0724,0945,11142,022.8,045.1,0.404,739.9,01.18,0.508
2013-10-02 01:57:00,1062E-4,5C000000,-0724,0947,11078,022.8,045.2,0.404,739.7,01.18,0.508
2013-10-02 01:58:00,1050E-4,5C000000,-0724,0947,10953,022.8,045.2,0.404,740.0,01.18,0.508
2013-10-02 01:59:00,7477E-5,5C000000,-0724,0946,11062,022.8,045.2,0.404,739.8,01.18,0.508
2013-10-02 02:00:00,1443E-4,5C000000,-0724,0946,11151,022.8,045.2,0.404,739.9,01.18,0.508
2013-10-02 02:01:00,7978E-5,5C000000,-0724,0946,10972,022.8,045.2,0.404,740.0,01.18,0.508
2013-10-02 02:02:00,1128E-4,5C000000,-0724,0947,11032,022.8,045.2,0.404,739.9,01.18,0.508
2013-10-02 02:03:00,1425E-4,5C000000,-0724,0948,11083,022.8,045.2,0.404,739.8,01.18,0.508
2013-10-02 02:04:00,9485E-6,5C000000,-0724,0948,10983,022.8,045.2,0.404,739.9,01.18,0.508
2013-10-02 02:05:00,1735E-4,5C000000,-0724,0947,11073,022.8,045.2,0.404,740.0,01.18,0.508
2013-10-02 02:06:00,6125E-5,5C000000,-0724,0947,10875,022.8,045.2,0.404,739.9,01.18,0.508
2013-10-02 02:07:00,8698E-5,5C000000,-0724,0947,11010,022.8,045.2,0.404,739.9,01.18,0.508
2013-10-02 02:08:00,1135E-4,5C000000,-0724,0947,11010,022.8,045.2,0.404,739.9,01.18,0.508
2013-10-02 02:09:00,1115E-4,5C000000,-0724,0948,10994,022.8,045.2,0.404,739.9,01.18,0.508
2013-10-02 02:10:00,8396E-5,5C000000,-0724,0947,11025,022.8,045.2,0.404,739.8,01.18,0.508
2013-10-02 02:11:00,1034E-4,5C000000,-0724,0947,10991,022.8,045.2,0.405,740.0,01.18,0.508
2013-10-02 02:12:00,2088E-5,5C000000,-0724,0947,10981,022.8,045.2,0.404,739.9,01.18,0.508
2013-10-02 02:13:00,1564E-4,5C000000,-0724,0947,11182,022.8,045.2,0.404,739.9,01.18,0.508
2013-10-02 02:14:00,1169E-4,5C000000,-0724,0946,10988,022.8,045.2,0.405,739.8,01.18,0.508
2013-10-02 02:15:00,1124E-4,5C000000,-0724,0947,11086,022.8,045.2,0.404,740.0,01.18,0.508
2013-10-02 02:16:00,9747E-5,5C000000,-0724,0947,11075,022.8,045.2,0.405,740.0,01.18,0.508
2013-10-02 02:17:00,1999E-5,5C000000,-0724,0946,10851,022.8,045.2,0.405,740.0,01.18,0.508
2013-10-02 02:18:00,1024E-4,5C000000,-0724,0947,11091,022.8,045.2,0.405,739.8,01.18,0.508
2013-10-02 02:19:00,1303E-4,5C000000,-0724,0946,11016,022.8,045.2,0.404,739.8,01.18,0.508
2013-10-02 02:20:00,1026E-5,5C000000,-0724,0947,11076,022.8,045.2,0.405,739.8,01.18,0.508
2013-10-02 02:21:00,1667E-4,5C000000,-0724,0948,11050,022.8,045.2,0.405,739.9,01.18,0.508
2013-10-02 02:22:00,7302E-6,5C000000,-0724,0946,11036,022.8,045.2,0.404,739.7,01.18,0.508
2013-10-02 02:23:00,5898E-5,5C000000,-0724,0947,11116,022.8,045.2,0.405,739.8,01.18,0.508
2013-10-02 02:24:00,1208E-4,5C000000,-0724,0946,11117,022.8,045.2,0.404,739.8,01.18,0.508
2013-10-02 02:25:00,-1076E-5,5C000000,-0724,0947,11063,022.8,045.2,0.404,739.8,01.18,0.508
2013-10-02 02:26:00,1166E-4,5C000000,-0724,0947,11137,022.8,045.2,0.404,739.8,01.18,0.508
2013-10-02 02:27:00,1374E-4,5C000000,-0724,0947,11096,022.8,045.2,0.404,739.8,01.18,0.508
2013-10-02 02:28:00,8343E-5,5C000000,-0724,0947,10977,022.8,045.2,0.404,739.7,01.18,0.508
2013-10-02 02:29:00,6630E-5,5C000000,-0724,0946,10999,022.8,045.2,0.404,739.9,01.18,0.508
2013-10-02 02:30:00,1640E-5,5C000000,-0724,0947,11135,022.8,045.2,0.404,739.7,01.18,0.508
2013-10-02 02:31:00,4824E-5,5C000000,-0724,0946,11134,022.8,045.2,0.404,739.8,01.18,0.508
2013-10-02 02:32:00,1582E-4,5C000000,-0724,0947,10984,022.8,045.2,0.404,739.9,01.18,0.508
2013-10-02 02:33:00,8847E-5,5C000000,-0724,0946,11136,022.8,045.2,0.404,739.6,01.18,0.508
2013-10-02 02:34:00,8535E-5,5C000000,-0724,0947,11184,022.8,045.2,0.404,739.7,01.18,0.508
2013-10-02 02:35:00,1568E-4,5C000000,-0724,0946,11154,022.8,045.2,0.404,739.6,01.18,0.508
2013-10-02 02:36:00,1809E-5,5C000000,-0724,0947,11197,022.8,045.2,0.404,739.7,01.18,0.508
2013-10-02 02:37:00,3277E-5,5C000000,-0724,0947,11025,022.8,045.2,0.404,739.5,01.18,0.508
2013-10-02 02:38:00,1455E-4,5C000000,-0724,0947,11035,022.8,045.2,0.404,739.6,01.18,0.508
2013-10-02 02:39:00,9391E-5,5C000010,-0724,0946,9882,022.8,045.2,0.404,739.6,01.18,0.508
2013-10-02 02:40:00,2665E-5,5C000000,-0724,0946,11188,022.8,045.2,0.404,739.6,01.18,0.508
2013-10-02 02:41:00,7642E-5,5C000000,-0724,0947,11149,022.8,045.2,0.404,739.7,01.18,0.508
2013-10-02 02:42:00,1158E-4,5C000000,-0724,0947,10819,022.8,045.2,0.404,739.6,01.18,0.508
2013-10-02 02:43:00,6095E-5,5C000000,-0724,0947,11127,022.8,045.2,0.404,739.6,01.18,0.508
2013-10-02 02:44:00,6560E-6,5C000000,-0724,0947,10964,022.8,045.2,0.404,739.6,01.18,0.508
2013-10-02 02:45:00,7910E-5,5C000000,-0724,0947,11149,022.8,045.2,0.404,739.4,01.18,0.508
2013-10-02 02:46:00,9996E-5,5C000000,-0724,0948,11177,022.8,045.2,0.404,739.4,01.18,0.508
2013-10-02 02:47:00,1443E-4,5C000000,-0724,0947,11101,022.8,045.2,0.404,739.5,01.18,0.508
2013-10-02 02:48:00,5736E-5,5C000000,-0724,0948,11152,022.8,045.2,0.404,739.4,01.18,0.508
2013-10-02 02:49:00,8615E-5,5C000000,-0724,0946,11119,022.8,045.2,0.404,739.4,01.18,0.508
2013-10-02 02:50:00,1225E-4,5C000000,-0724,0947,11128,022.7,045.2,0.404,739.6,01.18,0.508
2013-10-02 02:51:00,5115E-5,5C000000,-0724,0948,11072,022.7,045.2,0.404,739.4,01.18,0.508
2013-10-02 02:52:00,5784E-5,5C000000,-0724,0947,11103,022.7,045.2,0.404,739.4,01.18,0.508
2013-10-02 02:53:00,9624E-5,5C000000,-0724,0947,10956,022.8,045.2,0.404,739.5,01.18,0.508
2013-10-02 02:54:00,9924E-5,5C000000,-0724,0946,11030,022.8,045.2,0.404,739.3,01.18,0.508
2013-10-02 02:55:00,-1438E-5,5C000000,-0724,0947,11215,022.8,045.2,0.404,739.5,01.18,0.508
2013-10-02 02:56:00,9588E-5,5C000000,-0724,0947,11096,022.8,045.2,0.404,739.4,01.18,0.508
2013-10-02 02:57:00,9644E-5,5C000000,-0724,0947,11115,022.7,045.2,0.404,739.4,01.18,0.508
2013-10-02 02:58:00,3903E-5,5C000000,-0724,0947,11137,022.7,045.2,0.404,739.5,01.18,0.508
2013-10-02 02:59:00,5388E-5,5C000000,-0724,0946,11215,022.7,045.2,0.404,739.4,01.18,0.508
2013-10-02 03:00:00,7565E-5,5C000000,-0724,0947,11155,022.7,045.2,0.404,739.2,01.18,0.508
2013-10-02 03:01:00,8621E-5,5C000000,-0724,0947,11143,022.7,045.2,0.404,739.3,01.18,0.508
2013-10-02 03:02:00,3350E-5,5C000000,-0724,0947,11173,022.7,045.2,0.404,739.4,01.18,0.508
2013-10-02 03:03:00,5109E-5,5C000000,-0724,0947,11174,022.7,045.2,0.404,739.3,01.18,0.508
2013-10-02 03:04:00,1270E-4,5C000000,-0724,0947,11014,022.7,045.2,0.404,739.3,01.18,0.508
2013-10-02 03:05:00,8590E-5,5C000000,-0724,0946,10920,022.7,045.2,0.404,739.3,01.18,0.508
2013-10-02 03:06:00,8483E-5,5C000000,-0724,0945,11164,022.7,045.2,0.404,739.3,01.18,0.508
2013-10-02 03:07:00,6895E-5,5C000000,-0724,0947,10943,022.7,045.2,0.404,739.4,01.18,0.508
2013-10-02 03:08:00,1554E-4,5C000000,-0724,0947,11096,022.7,045.2,0.404,739.3,01.18,0.508
2013-10-02 03:09:00,5239E-5,5C000000,-0724,0948,11129,022.7,045.2,0.404,739.2,01.18,0.508
2013-10-02 03:10:00,1482E-4,5C000000,-0724,0947,11093,022.7,045.2,0.404,739.0,01.18,0.508
2013-10-02 03:11:00,1766E-4,5C000000,-0724,0946,11157,022.7,045.2,0.404,739.3,01.18,0.508
2013-10-02 03:12:00,8513E-5,5C000000,-0724,0947,11058,022.7,045.2,0.404,739.0,01.18,0.508
2013-10-02 03:13:00,1332E-4,5C000000,-0724,0947,11075,022.7,045.2,0.404,739.2,01.18,0.508
2013-10-02 03:14:00,1023E-4,5C000000,-0724,0946,11016,022.7,045.2,0.404,739.3,01.18,0.508
2013-10-02 03:15:00,9216E-5,5C000000,-0724,0947,11021,022.7,045.2,0.404,739.1,01.18,0.508
2013-10-02 03:16:00,6247E-5,5C000000,-0724,0947,11152,022.7,045.2,0.404,739.1,01.18,0.508
2013-10-02 03:17:00,2164E-5,5C000000,-0724,0946,10985,022.7,045.2,0.404,739.2,01.18,0.508
2013-10-02 03:18:00,1032E-4,5C000000,-0724,0945,11037,022.7,045.2,0.404,738.8,01.18,0.508
2013-10-02 03:19:00,1081E-4,5C000000,-0724,0947,11181,022.7,045.2,0.404,739.0,01.18,0.508
2013-10-02 03:20:00,7814E-5,5C000000,-0724,0946,11145,022.7,045.2,0.404,739.1,01.18,0.508
2013-10-02 03:21:00,1110E-4,5C000000,-0724,0947,11093,022.6,045.2,0.404,739.0,01.18,0.508
2013-10-02 03:22:00,1398E-4,5C000000,-0724,0947,11052,022.7,045.2,0.404,738.9,01.18,0.508
2013-10-02 03:23:00,1074E-4,5C000000,-0724,0946,11056,022.6,045.2,0.404,738.9,01.18,0.508
2013-10-02 03:24:00,1257E-4,5C000000,-0724,0947,11087,022.6,045.2,0.404,739.1,01.18,0.508
2013-10-02 03:25:00,1058E-4,5C000000,-0724,0945,11174,022.6,045.2,0.404,739.0,01.18,0.508
2013-10-02 03:26:00,1526E-4,5C000000,-0724,0945,11171,022.6,045.2,0.404,739.0,01.18,0.508
2013-10-02 03:27:00,4714E-5,5C000000,-0724,0948,11140,022.7,045.2,0.404,738.8,01.18,0.508
2013-10-02 03:28:00,1104E-4,5C000000,-0724,0947,10953,022.7,045.2,0.404,738.8,01.18,0.508
2013-10-02 03:29:00,1360E-4,5C000000,-0724,0947,11157,022.7,045.2,0.404,739.0,01.18,0.508
2013-10-02 03:30:00,9908E-5,5C000000,-0724,0946,11028,022.6,045.2,0.404,738.9,01.18,0.508
2013-10-02 03:31:00,1093E-4,5C000000,-0724,0946,11137,022.7,045.2,0.404,738.9,01.18,0.508
2013-10-02 03:32:00,9614E-5,5C000000,-0724,0947,11051,022.6,045.2,0.404,739.1,01.18,0.508
2013-10-02 03:33:00,1629E-4,5C000000,-0724,0947,11040,022.6,045.2,0.404,739.0,01.18,0.508
2013-10-02 03:34:00,9948E-5,5C000000,-0724,0946,10984,022.6,045.2,0.404,739.1,01.18,0.508
2013-10-02 03:35:00,5313E-5,5C000000,-0724,0945,11123,022.6,045.2,0.404,739.0,01.18,0.508
2013-10-02 03:36:00,9400E-5,5C000000,-0724,0947,10970,022.6,045.2,0.404,739.0,01.18,0.508
2013-10-02 03:37:00,6311E-5,5C000000,-0724,0946,11038,022.6,045.2,0.404,738.9,01.18,0.508
2013-10-02 03:38:00,-4081E-6,5C000000,-0724,0945,11134,022.6,045.2,0.404,739.0,01.18,0.508
2013-10-02 03:39:00,1786E-4,5C000000,-0724,0947,10958,022.6,045.2,0.404,739.0,01.18,0.508
2013-10-02 03:40:00,2766E-5,5C000000,-0724,0946,11142,022.6,045.2,0.404,738.9,01.18,0.508
2013-10-02 03:41:00,9631E-5,5C000000,-0724,0945,10818,022.6,045.2,0.404,739.1,01.18,0.508
2013-10-02 03:42:00,9269E-5,5C000000,-0724,0946,11047,022.6,045.2,0.405,739.2,01.18,0.508
2013-10-02 03:43:00,6787E-5,5C000000,-0724,0947,11080,022.6,045.2,0.404,739.1,01.18,0.508
2013-10-02 03:44:00,4566E-5,5C000000,-0724,0946,11127,022.6,045.2,0.404,739.0,01.18,0.508
2013-10-02 03:45:00,1365E-4,5C000000,-0724,0946,11069,022.6,045.2,0.405,739.1,01.18,0.508
2013-10-02 03:46:00,1813E-4,5C000000,-0724,0946,11050,022.6,045.2,0.404,739.1,01.18,0.508
2013-10-02 03:47:00,1334E-4,5C000000,-0724,0947,11138,022.6,045.2,0.404,739.1,01.18,0.508
2013-10-02 03:48:00,5005E-5,5C000000,-0724,0947,10911,022.6,045.2,0.404,739.0,01.18,0.508
2013-10-02 03:49:00,2064E-5,5C000000,-0724,0947,11062,022.6,045.2,0.404,739.1,01.18,0.508
2013-10-02 03:50:00,1223E-4,5C000000,-0724,0946,11182,022.6,045.2,0.404,739.1,01.18,0.508
2013-10-02 03:51:00,1771E-4,5C000000,-0724,0946,11087,022.6,045.2,0.404,739.0,01.18,0.508
2013-10-02 03:52:00,8179E-5,5C000000,-0724,0947,10945,022.6,045.2,0.404,739.2,01.18,0.508
2013-10-02 03:53:00,1207E-4,5C000000,-0724,0946,11027,022.6,045.1,0.404,739.3,01.18,0.508
2013-10-02 03:54:00,7923E-5,5C000000,-0724,0946,11094,022.6,045.2,0.404,739.2,01.18,0.508
2013-10-02 03:55:00,1148E-4,5C000000,-0724,0946,10978,022.6,045.2,0.405,739.4,01.18,0.508
2013-10-02 03:56:00,1288E-4,5C000000,-0724,0946,11102,022.6,045.2,0.404,739.2,01.18,0.508
2013-10-02 03:57:00,9783E-5,5C000000,-0724,0947,11167,022.6,045.2,0.404,739.4,01.18,0.508
2013-10-02 03:58:00,6252E-5,5C000000,-0724,0946,11017,022.6,045.2,0.404,739.3,01.18,0.508
2013-10-02 03:59:00,2085E-4,5C000000,-0724,0946,10931,022.6,045.2,0.404,739.2,01.18,0.508
2013-10-02 04:00:00,2432E-5,5C000000,-0724,0946,11039,022.5,045.2,0.404,739.3,01.18,0.508
2013-10-02 04:01:00,8417E-5,5C000000,-0724,0946,10967,022.6,045.2,0.404,739.2,01.18,0.508
2013-10-02 04:02:00,8141E-5,5C000000,-0724,0946,11135,022.5,045.2,0.405,739.3,01.18,0.508
2013-10-02 04:03:00,1441E-4,5C000000,-0724,0946,10978,022.5,045.2,0.405,739.2,01.18,0.508
2013-10-02 04:04:00,5156E-5,5C000000,-0724,0946,11108,022.5,045.2,0.405,739.3,01.18,0.508
2013-10-02 04:05:00,-1087E-7,5C000000,-0724,0947,11062,022.5,045.2,0.405,739.3,01.18,0.508
2013-10-02 04:06:00,7976E-5,5C000000,-0724,0947,10976,022.5,045.2,0.405,739.3,01.18,0.508
2013-10-02 04:07:00,1142E-4,5C000000,-0724,0947,11010,022.5,045.2,0.405,739.4,01.18,0.508
2013-10-02 04:08:00,1309E-4,5C000000,-0724,0946,10924,022.5,045.2,0.405,739.1,01.18,0.508
2013-10-02 04:09:00,6168E-5,5C000000,-0724,0947,11009,022.5,045.2,0.404,739.3,01.18,0.508
2013-10-02 04:10:00,5223E-5,5C000000,-0724,0946,10824,022.5,045.2,0.404,739.3,01.18,0.508
2013-10-02 04:11:00,-4556E-6,5C000000,-0724,0947,11050,022.5,045.2,0.404,739.5,01.18,0.508
2013-10-02 04:12:00,9869E-5,5C000000,-0724,0945,10983,022.5,045.2,0.404,739.4,01.18,0.508
2013-10-02 04:13:00,8153E-5,5C000000,-0724,0946,11021,022.5,045.2,0.404,739.4,01.18,0.508
2013-10-02 04:14:00,3113E-5,5C000000,-0724,0946,11134,022.5,045.2,0.404,739.3,01.18,0.508
2013-10-02 04:15:00,8279E-5,5C000000,-0724,0947,10993,022.5,045.2,0.404,739.4,01.18,0.508
2013-10-02 04:16:00,6903E-5,5C000000,-0724,0947,10819,022.5,045.2,0.404,739.5,01.18,0.508
2013-10-02 04:17:00,7451E-5,5C000000,-0724,0946,11016,022.5,045.2,0.404,739.5,01.18,0.508
2013-10-02 04:18:00,4478E-5,5C000000,-0724,0946,10869,022.5,045.2,0.404,739.5,01.18,0.508
2013-10-02 04:19:00,5251E-5,5C000000,-0724,0947,11070,022.5,045.2,0.405,739.3,01.18,0.508
2013-10-02 04:20:00,1205E-4,5C000000,-0724,0947,11158,022.5,045.2,0.405,739.4,01.18,0.508